sat.trackr.live / text

‹ back to catalog

STARLINK-32529

NORAD 62139 · 2024-224A

PAYLOAD ACTIVE UNKNOWN

§ Identity

Operator
Country
US
Launch date
2024-11-30
Launch site
AFETR
Launch vehicle
Mass (kg)
RCS (m²)

Purposes: comms

External: N2YO · Heavens-Above · Gunter

§ Orbital elements

Epoch: 2026-09-21T00:56:10.606560Z

Period
94.27 min
Inclination
43.0021°
Eccentricity
0.0001008
Mean motion
15.27582869 rev/d
Perigee alt
482.3 km
Apogee alt
483.7 km
Semi-major
6,861.2 km
B*
3.4584e-4
RAAN
135.1173°
Arg perigee
260.4069°
Mean anomaly
99.6669°
Rev number
10,229

§ Raw data

STARLINK-325291 62139U 24224A   26264.03901165  .00009267  00000+0  34584-3 0  99902 62139  43.0021 135.1173 0001008 260.4069  99.6669 15.27582869102292

JSON: /api/v1/satellites/62139 · /tle

For live sub-satellite position, see the globe view (requires WebGL).

§ Visibility from observer

Set your observer location to see the next 7 days of passes ≥ 10°. The values pass through the URL so the page stays shareable.

No JS? Fill the form by hand. The geolocation button needs JavaScript.